Location: Stamford Observatory
(41.1241°N, 73.5498°W)
Time: 00:55:15
(UTC-04:00)

IRS-P3 - Visible Passes

Search period start: 23 May 2017 00:00
Search period end: 02 June 2017 00:00
Orbit: 813 x 820 km, 98.7° (Epoch: 21 May)

Date Brightness Start Highest point End Pass type
(mag) Time Alt. Az. Time Alt. Az. Time Alt. Az.
23 May 6.4 01:07:04 10° ENE 01:08:52 12° E 01:09:37 11° E visible
23 May 4.0 02:44:09 10° NNE 02:49:30 84° WNW 02:50:55 51° SSW visible
23 May 6.2 04:26:52 10° NW 04:28:39 12° WNW 04:30:28 10° WNW visible
24 May 4.3 02:22:29 10° NNE 02:27:47 63° ESE 02:28:59 49° SSE visible
24 May 5.9 04:03:46 10° NNW 04:07:16 18° WNW 04:10:16 12° W visible
25 May 5.0 02:01:01 10° NNE 02:06:00 39° E 02:07:03 36° SE visible
25 May 5.4 03:41:24 10° N 03:45:49 27° WNW 03:48:20 19° WSW visible
26 May 5.6 01:39:47 10° NE 01:44:09 25° E 01:45:06 24° ESE visible
26 May 4.8 03:19:17 10° N 03:24:16 41° WNW 03:26:24 28° WSW visible
27 May 6.1 01:19:02 10° NE 01:22:13 16° E 01:23:10 15° ESE visible
27 May 4.2 02:57:23 10° N 03:02:40 64° WNW 03:04:27 40° SW visible
28 May 4.1 02:35:38 10° NNE 02:40:59 82° ESE 02:42:31 48° S visible
28 May 6.1 04:17:38 10° NNW 04:20:16 14° WNW 04:22:56 10° W visible
29 May 4.6 02:14:02 10° NNE 02:19:14 52° E 02:20:34 42° SE visible
29 May 5.7 03:54:56 10° NNW 03:58:51 21° WNW 04:01:51 14° WSW visible
30 May 5.2 01:52:38 10° NNE 01:57:26 33° E 01:58:37 30° ESE visible
30 May 5.2 03:32:41 10° N 03:37:21 32° WNW 03:39:54 21° WSW visible
31 May 5.8 01:31:34 10° NE 01:35:33 21° E 01:36:40 20° ESE visible
31 May 4.5 03:10:40 10° N 03:15:48 49° WNW 03:17:58 31° SW visible
01 Jun 6.3 01:11:11 10° ENE 01:13:35 13° E 01:14:43 12° ESE visible
01 Jun 4.1 02:48:49 10° N 02:54:10 77° WNW 02:56:00 42° SSW visible
01 Jun 6.3 04:32:08 10° NW 04:33:15 11° WNW 04:34:21 10° WNW visible
